Location: Frankfurt+am+Main
(50.1100°N, 8.4815°E)
Time: 10:07:48
(UTC+01:00)

ISS - Pass Details

Date: 13 January 2018
Orbit: 402 x 407 km, 51.6° (Epoch: 21 January)

Event Time Altitude Azimuth Distance (km) Brightness Sun altitude
Exits shadow 07:06:22 13° 251° (WSW) 1,321 -1.7 -11.5°
Maximum altitude 07:07:50 16° 221° (SW) 1,161 -1.7 -11.2°
Drops below altitude 10° 07:09:55 10° 181° (S) 1,461 -0.8 -10.9°
Sets 07:12:33 0° 158° (SSE) 2,318 0.7 -10.5°
